Location: Newark
(52.3500°N, 175.9667°E)
Time: 11:06:29
(UTC+00:00)

Transit 2A Rocket - Visible Passes

Search period start: 18 April 2021 00:00
Search period end: 28 April 2021 00:00
Orbit: 594 x 908 km, 66.7° (Epoch: 18 April)

Date Brightness Start Highest point End Pass type
(mag) Time Alt. Az. Time Alt. Az. Time Alt. Az.
18 Apr 7.1 09:11:34 10° NNW 09:13:52 14° NNE 09:16:12 10° NE visible
18 Apr 6.0 10:53:47 10° NNW 10:57:43 32° NE 10:59:02 27° ENE visible
18 Apr 5.7 12:36:09 10° NW 12:38:55 35° WNW 12:38:55 35° WNW visible
19 Apr 7.2 08:28:47 10° NNW 08:30:45 13° N 08:32:45 10° NNE visible
19 Apr 6.5 10:11:18 10° NNW 10:14:51 23° NNE 10:17:21 15° ENE visible
19 Apr 4.9 11:53:28 10° NW 11:57:14 64° NW 11:57:14 64° NW visible
20 Apr 6.8 09:28:47 10° NNW 09:31:53 18° NNE 09:35:03 10° ENE visible
20 Apr 4.9 11:10:53 10° NW 11:15:16 60° NE 11:15:34 58° ENE visible
20 Apr 6.6 12:53:51 10° WNW 12:55:27 18° WNW 12:55:27 18° WNW visible
21 Apr 7.0 08:46:13 10° NNW 08:48:50 15° NNE 08:51:30 10° NE visible
21 Apr 5.6 10:28:21 10° NNW 10:32:31 40° NE 10:33:55 31° E visible
21 Apr 5.8 12:10:54 10° NW 12:13:49 32° W 12:13:49 32° W visible
22 Apr 7.1 08:03:34 10° NNW 08:05:44 13° N 08:07:57 10° NE visible
22 Apr 6.1 09:45:52 10° NNW 09:49:41 28° NE 09:52:18 17° E visible
22 Apr 4.8 11:28:08 10° NW 11:32:11 62° W 11:32:11 62° W visible
23 Apr 6.5 09:03:22 10° NNW 09:06:46 22° NNE 09:10:18 10° E visible
23 Apr 4.6 10:45:30 10° NW 10:49:57 79° NE 10:50:36 64° ESE visible
23 Apr 6.8 12:28:55 10° WNW 12:30:29 16° W 12:30:29 16° W visible
24 Apr 6.8 08:20:50 10° NNW 08:23:47 17° NNE 08:26:47 10° ENE visible
24 Apr 5.1 10:02:56 10° NNW 10:07:16 51° NE 10:09:02 32° ESE visible
24 Apr 6.0 11:45:44 10° WNW 11:48:55 28° W 11:48:55 28° W visible
25 Apr 5.7 09:20:25 10° NNW 09:24:30 35° NE 09:27:29 17° E visible
25 Apr 5.0 11:02:51 10° NW 11:07:10 48° WSW 11:07:23 47° SW visible
26 Apr 6.2 08:37:55 10° NNW 08:41:38 26° NNE 08:45:30 10° E visible
26 Apr 4.6 10:20:09 10° NW 10:24:37 78° SW 10:25:52 48° SSE visible
26 Apr 6.9 12:04:18 10° W 12:05:46 13° W 12:05:46 13° W visible
27 Apr 4.8 09:37:32 10° NW 09:41:59 68° NE 09:44:23 28° SE visible
27 Apr 6.3 11:20:40 10° WNW 11:24:09 22° WSW 11:24:16 22° WSW visible
